Time,TemperatureF,DewpointF,PressureIn,WindDirection,WindDirectionDegrees,WindSpeedMPH,WindSpeedGustMPH,Humidity,HourlyPrecipIn,Conditions,Clouds,dailyrainin,SoftwareType,DateUTC
2013-05-10 00:03:00,66.0,59.0,29.88,SSE,155,0.0,3.0,77,0.00,,,0.01,,2013-05-10 04:03:00,
2013-05-10 00:12:00,66.0,59.0,29.88,SSE,155,1.0,4.0,77,0.00,,,0.01,,2013-05-10 04:12:00,
2013-05-10 00:23:00,66.0,59.0,29.88,SSE,155,1.0,4.0,77,0.00,,,0.01,,2013-05-10 04:23:00,
2013-05-10 00:33:00,66.0,59.0,29.87,SSE,162,2.0,8.0,78,0.00,,,0.01,,2013-05-10 04:33:00,
2013-05-10 00:43:00,66.0,59.0,29.87,SSE,163,3.0,8.0,78,0.00,,,0.01,,2013-05-10 04:43:00,
2013-05-10 00:52:00,66.0,59.0,29.87,SSE,163,3.0,8.0,78,0.00,,,0.01,,2013-05-10 04:52:00,
2013-05-10 01:02:00,66.0,59.0,29.88,South,174,3.0,9.0,78,0.00,,,0.01,,2013-05-10 05:02:00,
2013-05-10 01:12:00,66.0,59.0,29.88,South,173,3.0,8.0,78,0.00,,,0.01,,2013-05-10 05:12:00,
2013-05-10 01:22:00,66.0,59.0,29.88,South,173,3.0,8.0,78,0.00,,,0.01,,2013-05-10 05:22:00,
2013-05-10 01:32:00,66.0,58.0,29.88,South,173,2.0,6.0,76,0.00,,,0.01,,2013-05-10 05:32:00,
2013-05-10 01:42:00,66.0,58.0,29.88,SSE,164,1.0,8.0,76,0.00,,,0.01,,2013-05-10 05:42:00,
2013-05-10 01:52:00,66.0,58.0,29.88,SSE,164,1.0,8.0,76,0.00,,,0.01,,2013-05-10 05:52:00,
2013-05-10 02:02:00,66.0,58.0,29.87,SSE,159,2.0,9.0,76,0.00,,,0.01,,2013-05-10 06:02:00,
2013-05-10 02:12:00,67.0,59.0,29.86,SSE,168,3.0,7.0,76,0.00,,,0.01,,2013-05-10 06:12:00,
2013-05-10 02:21:00,67.0,59.0,29.86,SSE,168,3.0,7.0,76,0.00,,,0.01,,2013-05-10 06:21:00,
2013-05-10 02:32:00,67.0,59.0,29.86,SSW,207,1.0,7.0,76,0.00,,,0.01,,2013-05-10 06:32:00,
2013-05-10 02:42:00,66.0,59.0,29.86,SSW,203,2.0,4.0,77,0.00,,,0.01,,2013-05-10 06:42:00,
2013-05-10 02:51:00,66.0,59.0,29.86,SSW,203,2.0,4.0,77,0.00,,,0.01,,2013-05-10 06:51:00,
2013-05-10 03:02:00,66.0,59.0,29.85,South,191,2.0,5.0,77,0.00,,,0.01,,2013-05-10 07:02:00,
2013-05-10 03:12:00,66.0,59.0,29.85,South,191,2.0,5.0,77,0.00,,,0.01,,2013-05-10 07:12:00,
2013-05-10 03:22:00,66.0,59.0,29.85,South,191,2.0,5.0,77,0.00,,,0.01,,2013-05-10 07:22:00,
2013-05-10 03:32:00,66.0,59.0,29.85,South,190,3.0,5.0,78,0.00,,,0.01,,2013-05-10 07:32:00,
2013-05-10 03:42:00,66.0,59.0,29.85,South,190,1.0,6.0,78,0.00,,,0.01,,2013-05-10 07:42:00,
2013-05-10 03:52:00,66.0,59.0,29.85,South,190,1.0,6.0,78,0.00,,,0.01,,2013-05-10 07:52:00,
2013-05-10 04:02:00,66.0,59.0,29.85,South,189,3.0,6.0,78,0.00,,,0.01,,2013-05-10 08:02:00,
2013-05-10 04:12:00,66.0,59.0,29.85,South,188,2.0,6.0,78,0.00,,,0.01,,2013-05-10 08:12:00,
2013-05-10 04:22:00,66.0,59.0,29.85,South,188,2.0,6.0,78,0.00,,,0.01,,2013-05-10 08:22:00,
2013-05-10 04:32:00,66.0,59.0,29.84,South,187,2.0,5.0,79,0.00,,,0.01,,2013-05-10 08:32:00,
2013-05-10 04:42:00,66.0,60.0,29.84,South,187,2.0,4.0,80,0.00,,,0.01,,2013-05-10 08:42:00,
2013-05-10 04:52:00,66.0,60.0,29.84,South,187,2.0,4.0,80,0.00,,,0.01,,2013-05-10 08:52:00,
2013-05-10 05:02:00,65.0,59.0,29.84,South,187,2.0,3.0,80,0.00,,,0.01,,2013-05-10 09:02:00,
2013-05-10 05:11:00,65.0,59.0,29.84,South,187,2.0,5.0,80,0.00,,,0.01,,2013-05-10 09:11:00,
2013-05-10 05:21:00,65.0,59.0,29.84,South,187,2.0,5.0,80,0.00,,,0.01,,2013-05-10 09:21:00,
2013-05-10 05:33:00,65.0,59.0,29.84,South,187,3.0,6.0,81,0.00,,,0.01,,2013-05-10 09:33:00,
2013-05-10 05:43:00,65.0,59.0,29.83,South,187,2.0,4.0,81,0.00,,,0.01,,2013-05-10 09:43:00,
2013-05-10 05:52:00,65.0,59.0,29.83,South,187,2.0,4.0,81,0.00,,,0.01,,2013-05-10 09:52:00,
2013-05-10 06:03:00,64.0,58.0,29.82,South,187,3.0,5.0,82,0.00,,,0.01,,2013-05-10 10:03:00,
2013-05-10 06:12:00,64.0,58.0,29.83,South,187,3.0,6.0,82,0.00,,,0.01,,2013-05-10 10:12:00,
2013-05-10 06:23:00,64.0,58.0,29.83,South,187,3.0,6.0,82,0.00,,,0.01,,2013-05-10 10:23:00,
2013-05-10 06:32:00,64.0,59.0,29.82,South,187,2.0,6.0,83,0.00,,,0.01,,2013-05-10 10:32:00,
2013-05-10 06:42:00,64.0,59.0,29.82,South,187,1.0,7.0,83,0.00,,,0.01,,2013-05-10 10:42:00,
2013-05-10 06:52:00,64.0,59.0,29.82,South,187,1.0,7.0,83,0.00,,,0.01,,2013-05-10 10:52:00,
2013-05-10 07:02:00,64.0,59.0,29.83,South,186,2.0,5.0,83,0.00,,,0.01,,2013-05-10 11:02:00,
2013-05-10 07:12:00,63.0,58.0,29.83,South,186,3.0,5.0,84,0.00,,,0.01,,2013-05-10 11:12:00,
2013-05-10 07:22:00,63.0,58.0,29.83,South,186,3.0,5.0,84,0.00,,,0.01,,2013-05-10 11:22:00,
2013-05-10 07:32:00,63.0,58.0,29.83,South,186,3.0,6.0,84,0.00,,,0.01,,2013-05-10 11:32:00,
2013-05-10 07:42:00,63.0,58.0,29.83,South,186,3.0,5.0,85,0.00,,,0.01,,2013-05-10 11:42:00,
2013-05-10 07:51:00,63.0,58.0,29.83,South,186,3.0,5.0,85,0.00,,,0.01,,2013-05-10 11:51:00,
2013-05-10 08:02:00,63.0,58.0,29.83,South,186,1.0,8.0,85,0.00,,,0.01,,2013-05-10 12:02:00,
2013-05-10 08:12:00,63.0,58.0,29.83,South,186,3.0,5.0,85,0.00,,,0.01,,2013-05-10 12:12:00,
2013-05-10 08:21:00,63.0,58.0,29.83,South,186,3.0,5.0,85,0.00,,,0.01,,2013-05-10 12:21:00,
2013-05-10 08:32:00,63.0,58.0,29.84,South,184,3.0,8.0,85,0.00,,,0.01,,2013-05-10 12:32:00,
2013-05-10 08:42:00,63.0,58.0,29.84,South,184,3.0,8.0,85,0.00,,,0.01,,2013-05-10 12:42:00,
2013-05-10 08:51:00,64.0,60.0,29.83,South,183,4.0,7.0,86,0.00,,,0.01,,2013-05-10 12:51:00,
2013-05-10 09:01:00,64.0,60.0,29.83,South,177,5.0,8.0,86,0.00,,,0.01,,2013-05-10 13:01:00,
2013-05-10 09:11:00,64.0,60.0,29.83,South,177,5.0,8.0,86,0.00,,,0.01,,2013-05-10 13:11:00,
2013-05-10 09:21:00,64.0,59.0,29.83,South,176,2.0,6.0,85,0.00,,,0.01,,2013-05-10 13:21:00,
2013-05-10 09:32:00,65.0,61.0,29.82,South,176,3.0,6.0,86,0.00,,,0.01,,2013-05-10 13:32:00,
2013-05-10 09:42:00,65.0,60.0,29.82,South,172,3.0,8.0,85,0.00,,,0.01,,2013-05-10 13:42:00,
2013-05-10 09:52:00,65.0,60.0,29.82,South,172,3.0,8.0,85,0.00,,,0.01,,2013-05-10 13:52:00,
2013-05-10 10:02:00,66.0,61.0,29.82,South,170,3.0,6.0,84,0.00,,,0.01,,2013-05-10 14:02:00,
2013-05-10 10:11:00,66.0,61.0,29.82,South,170,2.0,7.0,84,0.00,,,0.01,,2013-05-10 14:11:00,
2013-05-10 10:21:00,66.0,61.0,29.82,South,170,2.0,7.0,84,0.00,,,0.01,,2013-05-10 14:21:00,
2013-05-10 10:32:00,66.0,61.0,29.82,SSE,168,4.0,6.0,83,0.00,,,0.01,,2013-05-10 14:32:00,
2013-05-10 10:42:00,66.0,61.0,29.83,SSE,167,1.0,5.0,84,0.00,,,0.01,,2013-05-10 14:42:00,
2013-05-10 10:51:00,66.0,61.0,29.83,SSE,167,1.0,5.0,84,0.00,,,0.01,,2013-05-10 14:51:00,
2013-05-10 11:02:00,66.0,61.0,29.83,SSE,168,2.0,6.0,84,0.00,,,0.01,,2013-05-10 15:02:00,
2013-05-10 11:20:00,-999.0,-99.9,29.83,SSE,166,2.0,6.0,85,0.00,,,0.01,,2013-05-10 15:20:00,
2013-05-10 11:32:00,66.0,61.0,29.83,South,169,1.0,5.0,85,0.01,,,0.02,,2013-05-10 15:32:00,
2013-05-10 11:42:00,66.0,62.0,29.82,South,171,3.0,7.0,86,0.02,,,0.03,,2013-05-10 15:42:00,
2013-05-10 11:53:00,66.0,62.0,29.82,South,171,3.0,7.0,86,0.02,,,0.03,,2013-05-10 15:53:00,
2013-05-10 12:02:00,65.0,61.0,29.83,South,183,11.0,20.0,87,0.04,,,0.05,,2013-05-10 16:02:00,
2013-05-10 12:12:00,64.0,60.0,29.83,SSE,167,8.0,23.0,88,0.06,,,0.07,,2013-05-10 16:12:00,
2013-05-10 12:23:00,64.0,60.0,29.83,SSE,167,8.0,23.0,88,0.06,,,0.07,,2013-05-10 16:23:00,
2013-05-10 12:33:00,63.0,60.0,29.85,SSW,199,2.0,10.0,90,0.09,,,0.10,,2013-05-10 16:33:00,
2013-05-10 12:42:00,63.0,60.0,29.85,SSE,158,3.0,10.0,91,0.10,,,0.12,,2013-05-10 16:42:00,
2013-05-10 12:52:00,63.0,60.0,29.85,SSE,158,3.0,10.0,91,0.10,,,0.12,,2013-05-10 16:52:00,
2013-05-10 13:02:00,63.0,61.0,29.84,SSE,164,2.0,8.0,92,0.11,,,0.14,,2013-05-10 17:02:00,
2013-05-10 13:12:00,63.0,61.0,29.84,SSE,163,2.0,4.0,92,0.10,,,0.15,,2013-05-10 17:12:00,
2013-05-10 13:22:00,63.0,61.0,29.84,SSE,163,2.0,4.0,92,0.10,,,0.15,,2013-05-10 17:22:00,
2013-05-10 13:32:00,63.0,61.0,29.83,South,170,0.0,8.0,93,0.06,,,0.16,,2013-05-10 17:32:00,
2013-05-10 13:42:00,63.0,61.0,29.83,South,169,1.0,8.0,93,0.05,,,0.17,,2013-05-10 17:42:00,
2013-05-10 13:52:00,63.0,61.0,29.83,South,169,1.0,8.0,93,0.05,,,0.17,,2013-05-10 17:52:00,
2013-05-10 14:10:00,-999.0,-99.9,29.82,SSE,161,2.0,5.0,93,0.05,,,0.19,,2013-05-10 18:10:00,
2013-05-10 14:22:00,64.0,62.0,29.82,SSE,165,2.0,6.0,94,0.05,,,0.20,,2013-05-10 18:22:00,
2013-05-10 14:34:00,63.0,61.0,29.83,SSE,160,2.0,6.0,94,0.06,,,0.22,,2013-05-10 18:34:00,
2013-05-10 14:43:00,63.0,61.0,29.82,SSE,161,2.0,6.0,93,0.07,,,0.24,,2013-05-10 18:43:00,
2013-05-10 14:54:00,63.0,61.0,29.82,SSE,161,2.0,6.0,93,0.07,,,0.24,,2013-05-10 18:54:00,
2013-05-10 15:02:00,63.0,61.0,29.82,SSE,156,0.0,9.0,93,0.13,,,0.32,,2013-05-10 19:02:00,
2013-05-10 15:11:00,64.0,62.0,29.81,SSE,159,2.0,5.0,94,0.13,,,0.33,,2013-05-10 19:11:00,
2013-05-10 15:21:00,64.0,62.0,29.81,SSE,159,2.0,5.0,94,0.13,,,0.33,,2013-05-10 19:21:00,
2013-05-10 15:32:00,64.0,63.0,29.80,SSE,158,2.0,6.0,95,0.19,,,0.41,,2013-05-10 19:32:00,
2013-05-10 15:42:00,63.0,61.0,29.80,SSE,157,0.0,7.0,94,0.20,,,0.44,,2013-05-10 19:42:00,
2013-05-10 15:52:00,63.0,61.0,29.80,SSE,157,0.0,7.0,94,0.20,,,0.44,,2013-05-10 19:52:00,
2013-05-10 16:02:00,63.0,61.0,29.77,SSE,149,5.0,17.0,94,0.14,,,0.46,,2013-05-10 20:02:00,
2013-05-10 16:12:00,63.0,61.0,29.78,SSE,163,4.0,8.0,94,0.14,,,0.47,,2013-05-10 20:12:00,
2013-05-10 16:21:00,63.0,61.0,29.78,SSE,163,4.0,8.0,94,0.14,,,0.47,,2013-05-10 20:21:00,
2013-05-10 16:32:00,63.0,61.0,29.77,SSE,161,4.0,10.0,94,0.07,,,0.48,,2013-05-10 20:32:00,
2013-05-10 16:42:00,63.0,61.0,29.77,SSE,161,4.0,10.0,94,0.07,,,0.48,,2013-05-10 20:42:00,
2013-05-10 16:52:00,63.0,61.0,29.77,SSE,165,3.0,9.0,94,0.04,,,0.48,,2013-05-10 20:52:00,
2013-05-10 17:02:00,62.0,60.0,29.85,SSE,152,2.0,7.0,94,-99.99,,,-99.99,,2013-05-10 21:02:00,
2013-05-10 17:11:00,62.0,60.0,29.85,SSE,165,0.0,6.0,94,-99.99,,,-99.99,,2013-05-10 21:11:00,
2013-05-10 17:25:00,62.0,60.0,29.85,SSE,165,0.0,6.0,94,-99.99,,,-99.99,,2013-05-10 21:25:00,
2013-05-10 17:32:00,62.0,61.0,29.85,SSE,163,2.0,7.0,95,-99.99,,,-99.99,,2013-05-10 21:32:00,
2013-05-10 17:43:00,63.0,62.0,29.85,SSW,195,3.0,7.0,95,-99.99,,,-99.99,,2013-05-10 21:43:00,
2013-05-10 17:52:00,63.0,62.0,29.85,SSW,195,3.0,7.0,95,-99.99,,,-99.99,,2013-05-10 21:52:00,
2013-05-10 18:02:00,63.0,62.0,29.85,South,191,2.0,6.0,95,0.02,,,-99.99,,2013-05-10 22:02:00,
2013-05-10 18:13:00,63.0,62.0,29.84,South,184,1.0,5.0,95,0.02,,,-99.99,,2013-05-10 22:13:00,
2013-05-10 18:22:00,63.0,62.0,29.84,South,184,1.0,5.0,95,0.02,,,-99.99,,2013-05-10 22:22:00,
2013-05-10 18:32:00,63.0,62.0,29.84,South,183,1.0,5.0,95,0.01,,,-99.99,,2013-05-10 22:32:00,
2013-05-10 18:42:00,63.0,62.0,29.84,South,185,0.0,4.0,95,0.01,,,-99.99,,2013-05-10 22:42:00,
2013-05-10 18:52:00,63.0,62.0,29.84,South,185,0.0,4.0,95,0.01,,,-99.99,,2013-05-10 22:52:00,
2013-05-10 19:02:00,63.0,62.0,29.84,South,183,1.0,4.0,95,0.01,,,-99.99,,2013-05-10 23:02:00,
2013-05-10 19:12:00,63.0,62.0,29.84,South,183,1.0,4.0,95,0.01,,,-99.99,,2013-05-10 23:12:00,
2013-05-10 19:22:00,62.0,61.0,29.84,South,181,3.0,5.0,95,0.00,,,-99.99,,2013-05-10 23:22:00,
2013-05-10 19:33:00,62.0,61.0,29.84,South,180,0.0,5.0,95,0.02,,,-99.99,,2013-05-10 23:33:00,
2013-05-10 19:42:00,62.0,61.0,29.84,South,180,1.0,5.0,95,0.03,,,-99.99,,2013-05-10 23:42:00,
2013-05-10 19:52:00,62.0,61.0,29.84,South,180,1.0,5.0,95,0.03,,,-99.99,,2013-05-10 23:52:00,
2013-05-10 20:02:00,62.0,61.0,29.84,South,180,0.0,5.0,95,0.03,,,-99.99,,2013-05-11 00:02:00,
2013-05-10 20:11:00,62.0,61.0,29.85,South,184,0.0,4.0,95,0.03,,,-99.99,,2013-05-11 00:11:00,
2013-05-10 20:21:00,62.0,61.0,29.85,South,184,0.0,4.0,95,0.03,,,-99.99,,2013-05-11 00:21:00,
2013-05-10 20:42:00,62.0,61.0,29.85,South,184,0.0,1.0,95,0.00,,,-99.99,,2013-05-11 00:42:00,
2013-05-10 20:52:00,62.0,61.0,29.85,South,184,0.0,1.0,95,0.00,,,-99.99,,2013-05-11 00:52:00,
2013-05-10 21:11:00,62.0,61.0,29.85,South,185,0.0,0.0,95,0.00,,,-99.99,,2013-05-11 01:11:00,
2013-05-10 21:21:00,62.0,61.0,29.85,South,185,0.0,0.0,95,0.00,,,-99.99,,2013-05-11 01:21:00,
2013-05-10 21:32:00,62.0,-40.0,29.85,South,185,0.0,0.0,1,0.00,,,-99.99,,2013-05-11 01:32:00,
2013-05-10 22:02:00,62.0,-40.0,29.86,South,185,0.0,2.0,1,0.00,,,-99.99,,2013-05-11 02:02:00,
2013-05-10 22:32:00,62.0,-40.0,29.86,South,185,0.0,2.0,1,0.00,,,-99.99,,2013-05-11 02:32:00,
2013-05-10 22:42:00,62.0,-40.0,29.86,South,185,0.0,0.0,1,0.00,,,-99.99,,2013-05-11 02:42:00,
2013-05-10 22:52:00,62.0,-40.0,29.86,South,185,0.0,0.0,1,0.00,,,-99.99,,2013-05-11 02:52:00,
2013-05-10 23:01:00,62.0,-40.0,29.87,South,185,0.0,0.0,1,0.00,,,-99.99,,2013-05-11 03:01:00,
2013-05-10 23:11:00,62.0,-40.0,29.88,South,185,0.0,0.0,1,0.00,,,-99.99,,2013-05-11 03:11:00,
2013-05-10 23:21:00,62.0,-40.0,29.88,South,185,0.0,0.0,1,0.00,,,-99.99,,2013-05-11 03:21:00,
2013-05-10 23:33:00,62.0,-40.0,29.87,South,185,0.0,2.0,1,0.00,,,-99.99,,2013-05-11 03:33:00,
2013-05-10 23:42:00,62.0,-40.0,29.86,South,184,0.0,4.0,1,0.02,,,-99.99,,2013-05-11 03:42:00,
2013-05-10 23:53:00,62.0,-40.0,29.86,South,184,0.0,4.0,1,0.02,,,-99.99,,2013-05-11 03:53:00,